Location: McDonald Observatory
(30.6717°N, 104.0221°W)
Time: 19:46:31
(UTC-05:00)

Daily predictions for brighter satellites

Satellite Brightness Start Highest point End
(mag) Time Altitude Azimuth Time Altitude Azimuth Time Altitude Azimuth
Cosmos 2221 4.2 21:28:45 10° NNW 21:32:41 36° W 21:36:38 10° SSW
ATLAS 2AS CENTAUR R/B 4.3 21:35:18 10° SE 21:38:42 14° ESE 21:42:15 10° ENE
Cosmos 1743 Rocket 4.0 21:36:14 10° SSW 21:40:40 67° W 21:45:06 10° N
ERBS 3.8 21:40:11 10° SSE 21:42:39 18° ESE 21:45:08 10° ENE
ALOS 2.3 21:38:19 10° SSE 21:42:59 88° ENE 21:47:40 10° N
ERS-1 Rocket 3.6 21:39:59 10° SE 21:44:36 38° ENE 21:49:14 10° N
Tiangong 1 3.2 21:41:52 10° W 21:44:39 29° NNW 21:47:26 10° NE
OAO 2 Rocket 3.5 21:39:53 10° WSW 21:45:11 90° ESE 21:50:32 10° ENE
Cosmos 1500 Rocket 3.6 21:41:11 10° S 21:45:32 89° E 21:49:57 10° N
Cosmos 371 Rocket 3.9 21:44:35 10° NNW 21:49:18 58° WSW 21:54:00 10° S
Envisat 4.2 21:45:26 11° ESE 21:49:20 25° ENE 21:53:25 10° NNE
Sakura Rocket 3.9 21:47:50 10° SW 21:51:59 28° SSE 21:54:46 14° ESE
Cosmos 2151 3.2 21:52:18 10° SSE 21:56:18 46° E 22:00:19 10° NNE
H-2A R/B 3.3 21:56:05 10° S 21:59:52 59° W 22:03:37 10° NNW
Cosmos 2058 3.8 21:57:46 14° SE 22:00:36 28° E 22:04:08 10° NNE
Hubble Space Telescope 1.6 21:57:26 10° SW 22:01:09 32° SSE 22:03:43 17° ESE
Delta 2 Rocket 4.4 21:57:56 10° WNW 22:01:30 36° N 22:04:47 10° ENE
NOSS 3-1 (C) 3.3 21:55:49 10° SSW 22:01:31 79° ESE 22:07:43 10° NNE
Cosmos 2228 Rocket 4.2 21:59:31 10° NNW 22:03:49 45° W 22:08:08 10° SSW
Cosmos 2297 Rocket 4.1 22:07:59 11° E 22:07:59 11° E 22:09:06 10° E
S3M 4.4 22:04:25 10° NNW 22:10:28 65° W 22:16:32 10° S
Cosmos 2112 Rocket 4.5 22:05:49 10° N 22:10:50 44° ENE 22:14:09 20° SE
Cosmos 1437 Rocket 3.0 22:11:02 10° NNW 22:14:52 69° W 22:18:30 11° S
Cosmos 2219 Rocket 4.1 22:13:22 10° NNE 22:16:26 15° ENE 22:18:54 12° E
COSMOS 2428 3.7 22:12:00 10° N 22:17:03 32° ENE 22:20:00 20° ESE
deb Chang Zheng 4 3.6 22:13:09 10° N 22:17:30 83° WNW 22:21:51 10° SSW
Cosmos 2298 Rocket 4.1 22:12:53 10° S 22:18:05 59° ESE 22:23:19 10° NNE
Cosmos 1726 3.9 22:16:01 10° NE 22:18:32 17° ENE 22:18:49 17° E
Sich 1 4.0 22:17:18 23° SE 22:18:50 29° E 22:22:38 10° NNE
Cosmos 1515 Rocket 4.4 22:15:52 10° NNW 22:20:09 50° W 22:24:22 10° SSW
Nimbus 7 Rocket 4.3 22:14:57 10° NNE 22:20:49 76° ESE 22:26:41 10° S
SJ-11-01 4.3 22:17:00 14° SSE 22:21:04 87° WSW 22:25:49 10° NNW
Cosmos 1939 Rocket 2.8 22:19:33 23° SSE 22:21:52 64° ENE 22:25:44 10° N
Cosmos 304 Rocket 3.7 22:17:32 10° NNW 22:22:21 76° ENE 22:25:23 22° SSE
Cosmos 1633 Rocket 3.8 22:24:02 27° ESE 22:25:19 32° E 22:29:12 10° NNE
Cosmos 1151 Rocket 3.1 22:23:56 10° N 22:28:15 76° W 22:31:31 17° S
SPOT 5 3.0 22:30:38 29° SE 22:32:39 50° ENE 22:37:16 10° N
CZ-4B R/B 3.9 22:28:12 10° NNE 22:33:08 42° E 22:35:20 28° SSE
DELTA 2 R/B (1) 3.5 22:31:36 10° WNW 22:37:11 83° NNE 22:40:00 30° ESE
Cosmos 2237 4.5 22:33:04 10° N 22:38:40 54° ENE 22:41:10 31° SE
Cosmos 2219 4.4 22:36:01 10° SW 22:41:29 45° WNW 22:46:59 10° N
H-2A R/B 1.7 22:39:11 10° WSW 22:40:38 25° WSW 22:40:38 25° WSW
Cosmos 405 4.3 22:38:25 10° NNW 22:41:47 38° W 22:44:06 17° SSW
Cosmos 1805 Rocket 3.6 22:38:51 17° S 22:42:15 83° W 22:46:43 10° N
MetOp-B 4.3 22:44:23 34° SE 22:46:35 58° ENE 22:51:50 10° N
Cosmos 1680 Rocket 3.8 22:41:24 10° NNW 22:46:37 66° WSW 22:49:39 25° S
H-2A R/B 3.9 22:46:30 16° ENE 22:47:26 16° ENE 22:50:38 10° NNE
Cosmos 2237 Rocket 3.8 22:47:12 10° NNE 22:51:16 20° ENE 22:52:39 18° E
Cosmos 2082 3.9 22:49:35 34° SSE 22:51:35 47° ESE 22:57:03 10° NNE
Cosmos 220 Rocket 3.9 22:50:21 34° S 22:52:09 75° ESE 22:56:35 10° NNE
Cosmos 1898 Rocket 3.6 22:47:33 10° SSW 22:52:42 72° WNW 22:57:53 10° NNE
Cosmos 1271 Rocket 3.9 22:49:18 10° NNE 22:52:15 28° ENE 22:52:15 28° ENE
Cosmos 1626 4.3 22:56:29 15° NE 22:56:29 15° NE 22:57:35 10° NE
Cosmos 2333 4.5 22:49:30 10° N 22:55:09 55° ENE 22:56:57 39° ESE
Cosmos 2322 4.4 22:51:13 10° NNW 22:56:42 49° WSW 23:00:01 23° S
Cosmos 1703 3.5 22:59:02 52° ENE 22:59:02 52° ENE 23:02:32 10° NNE
H-2A R/B 3.2 22:56:25 21° SSW 22:59:02 42° W 23:03:20 10° NNW
SPOT 1/Viking Rocket 3.8 22:58:30 43° ESE 22:59:41 52° ENE 23:04:40 10° N
SL-14 R/B 3.5 22:58:26 37° SSW 22:59:50 68° W 23:03:50 10° N
OTV 4 2.1 22:57:49 10° W 23:00:33 32° NNW 23:01:15 28° NNE
Cosmos 2360 Rocket 3.1 22:55:44 10° NW 23:01:02 42° WSW 23:04:20 21° SSW
YAOGAN 6 2.6 23:02:03 66° NE 23:02:03 66° NE 23:05:28 10° N
Cosmos 1666 Rocket 4.0 23:03:02 28° SSW 23:05:11 60° W 23:09:34 10° N
Cosmos 1707 Rocket 3.5 23:02:39 10° N 23:07:02 78° W 23:07:56 55° SSW
Terra 3.4 23:09:58 20° ENE 23:09:58 20° ENE 23:13:10 10° NNE
SL-08 RB Rocket 4.2 23:11:03 43° ENE 23:11:03 43° ENE 23:15:13 10° N
Meteor 2-11 Rocket 4.4 23:07:03 10° N 23:13:13 85° W 23:15:35 40° S
Cosmos 1241 Rocket 4.4 23:07:13 10° SSW 23:13:22 83° WNW 23:19:38 10° NNE
Cosmos 2315 Rocket 4.5 23:08:48 10° NNW 23:14:50 56° W 23:18:27 24° SSW
Meteor 1-27 4.3 23:10:48 10° NNW 23:16:26 72° W 23:18:23 41° SSW
Cosmos 1470 Rocket 3.7 23:19:29 60° NE 23:19:29 60° NE 23:23:13 10° NNE
Cosmos 1933 Rocket 3.7 23:20:23 61° ENE 23:20:23 61° ENE 23:24:21 10° NNE
Tiangong 1 4.5 23:21:24 10° NNW 23:21:55 10° N 23:22:26 10° N
Cosmos 2227 Rocket 2.2 23:21:20 31° SSW 23:24:08 81° WNW 23:29:50 10° NNE
Cosmos 1300 3.8 23:21:00 10° NNW 23:24:34 38° W 23:24:51 37° WSW
ATLAS 2AS CENTAUR R/B 2.9 23:21:17 10° SSW 23:28:32 87° WNW 23:36:31 10° NNE
OAO 2 Rocket 4.0 23:25:06 10° W 23:30:19 54° N 23:32:37 31° ENE
Nadezhda 1 Rocket 3.9 23:25:22 10° N 23:31:24 61° E 23:32:01 58° ESE
NOSS 0 Rocket 3.8 23:30:39 10° NNW 23:36:47 69° ENE 23:37:28 63° ESE
Cosmos 1745 Rocket 4.1 23:36:47 41° SSW 23:39:02 69° W 23:45:13 10° N
Lacrosse 4 Rocket 3.8 23:38:08 10° NNE 23:40:03 15° NE 23:40:03 15° NE
Hubble Space Telescope 3.0 23:38:05 10° WSW 23:39:08 17° WSW 23:39:08 17° WSW
USA 32 4.3 23:39:41 10° NNW 23:44:52 60° W 23:45:26 57° WSW
ATLAS 3B R/B 3.8 23:39:18 10° N 23:45:10 29° NE 23:46:35 27° ENE
ARGOS 3.3 23:45:01 61° SW 23:45:32 64° WSW 23:50:54 10° NNW
SL-16 R/B 3.6 23:41:47 10° N 23:46:17 25° ENE 23:46:17 25° ENE
Cosmos 1455 3.8 23:43:07 10° N 23:45:10 30° N 23:45:10 30° N
Cosmos 1709 Rocket 4.1 23:47:29 55° ENE 23:47:29 55° ENE 23:53:04 10° NNE
DMSP B5D2-2 4.2 23:43:08 10° NNE 23:47:41 65° NE 23:47:41 65° NE
Cosmos 2333 Rocket 2.1 23:43:48 10° NNW 23:49:33 77° ENE 23:49:33 77° ENE
Cosmos 2297 Rocket 2.4 23:49:42 55° SW 23:50:48 69° WNW 23:56:26 10° NNE
Cosmos 1726 4.4 23:50:57 10° NW 23:53:31 20° W 23:53:31 20° W
